Weather History for KMOB - October, 2011

Change the Weather History Date:

Thursday, October 13, 2011

  Actual Average Record
Temperature  
Mean Temperature 73 °F 69 °F  
Max Temperature 84 °F 80 °F 92 °F (1963)
Min Temperature 61 °F 59 °F 41 °F (1977)
Degree Days  
Heating Degree Days 0 1  
Month to date heating degree days 8 9  
Since 1 July heating degree days 8 11  
Cooling Degree Days 8 5  
Month to date cooling degree days 68 89  
Year to date cooling degree days 2758 2393  
Growing Degree Days 24 (Base 50)    
Moisture  
Dew Point 62 °F    
Average Humidity 67    
Maximum Humidity 100    
Minimum Humidity 34    
Precipitation  
Precipitation 0.01 in 0.11 in 2.98 in (1912)
Month to date precipitation 0.07 1.57  
Year to date precipitation 45.63 53.84  
Sea Level Pressure  
Sea Level Pressure 29.79 in    
Wind  
Wind Speed 6 mph (West)    
Max Wind Speed 15 mph    
Max Gust Speed 24 mph    
Visibility 9 miles    
Events Rain , Thunderstorm    
T = Trace of Precipitation, MM = Missing Value Source: NWS Daily Summary

Daily Weather History Graph

Daily Weather History Graph

Search for Another Location

Airport or City:

Trip Planner

Search our weather history database for the weather conditions in past years. The results will help you decide how hot, cold, wet, or windy it might be!

Date:

Astronomy

Oct. 13, 2011 Rise Set
Actual Time 6:53 AM CDT 6:24 PM CDT
Civil Twilight 6:29 AM CDT 6:48 PM CDT
Nautical Twilight 6:01 AM CDT 7:16 PM CDT
Astronomical Twilight 5:33 AM CDT 7:44 PM CDT
Moon 7:11 PM CDT (10/13) 8:14 AM CDT (10/13)
Length of Visible Light 12h 18m
Length of Day
11h 30m
Full, 98% of the Moon is Illuminated
Oct 13
Full
Oct 19
Last Quarter
Oct 26
New
Nov 2
First Quarter
Nov 10
Full

Hourly Weather History & Observations

Time (CDT) Temp. Heat Index Dew Point Humidity Pressure Visibility Wind Dir Wind Speed Gust Speed Precip Events Conditions
12:37 AM 66.2 °F - 64.4 °F 94% 29.83 in 10.0 mi Calm Calm - 0.01 in Rain Light Rain
12:56 AM 66.0 °F - 64.9 °F 96% 29.82 in 4.0 mi Calm Calm - 0.03 in Rain , Thunderstorm Heavy Thunderstorms and Rain
1:39 AM 66.2 °F - 64.4 °F 94% 29.81 in 7.0 mi South 4.6 mph - 0.02 in Rain Light Rain
1:56 AM 66.9 °F - 64.9 °F 93% 29.81 in 10.0 mi Calm Calm - 0.03 in Rain Light Rain
2:56 AM 64.9 °F - 64.0 °F 97% 29.79 in 8.0 mi South 3.5 mph - 0.00 in   Clear
3:56 AM 64.9 °F - 63.0 °F 93% 29.78 in 9.0 mi SSW 3.5 mph - N/A   Clear
4:56 AM 64.9 °F - 63.0 °F 93% 29.78 in 9.0 mi SW 5.8 mph - N/A   Partly Cloudy
5:56 AM 64.4 °F - 64.4 °F 100% 29.79 in 8.0 mi WSW 3.5 mph - N/A   Clear
6:56 AM 64.9 °F - 64.0 °F 97% 29.79 in 6.0 mi SW 4.6 mph - N/A   Partly Cloudy
7:56 AM 66.9 °F - 64.9 °F 93% 29.79 in 8.0 mi WSW 4.6 mph - N/A   Clear
8:56 AM 72.0 °F - 68.0 °F 87% 29.80 in 10.0 mi WSW 6.9 mph - N/A   Partly Cloudy
9:34 AM 73.4 °F - 68.0 °F 83% 29.80 in 8.0 mi Variable 6.9 mph - N/A   Mostly Cloudy
9:56 AM 73.9 °F - 69.1 °F 85% 29.79 in 8.0 mi WSW 8.1 mph - N/A   Mostly Cloudy
10:21 AM 73.4 °F - 69.8 °F 88% 29.80 in 8.0 mi West 6.9 mph - N/A   Mostly Cloudy
10:56 AM 77.0 °F - 69.1 °F 76% 29.79 in 10.0 mi West 10.4 mph - N/A   Mostly Cloudy
11:14 AM 78.8 °F - 69.8 °F 74% 29.80 in 10.0 mi West 5.8 mph - N/A   Scattered Clouds
11:24 AM 77.0 °F - 68.0 °F 74% 29.79 in 10.0 mi West 8.1 mph - N/A   Mostly Cloudy
11:36 AM 77.0 °F - 66.2 °F 69% 29.79 in 10.0 mi West 12.7 mph - N/A   Scattered Clouds
11:56 AM 80.1 °F 82.3 °F 66.9 °F 64% 29.78 in 10.0 mi West 10.4 mph 16.1 mph N/A   Scattered Clouds
12:56 PM 82.0 °F 83.1 °F 63.0 °F 52% 29.76 in 10.0 mi WSW 11.5 mph 17.3 mph N/A   Partly Cloudy
1:56 PM 84.0 °F 83.3 °F 57.0 °F 40% 29.74 in 10.0 mi WNW 11.5 mph 18.4 mph N/A   Scattered Clouds
2:56 PM 84.0 °F 82.6 °F 54.0 °F 35% 29.73 in 10.0 mi WNW 11.5 mph - N/A   Scattered Clouds
3:56 PM 82.9 °F 81.8 °F 53.1 °F 36% 29.73 in 10.0 mi WNW 6.9 mph 16.1 mph N/A   Partly Cloudy
4:56 PM 81.0 °F - 52.0 °F 36% 29.74 in 10.0 mi WNW 9.2 mph - N/A   Partly Cloudy
5:56 PM 75.9 °F - 54.0 °F 46% 29.75 in 10.0 mi WNW 4.6 mph - N/A   Partly Cloudy
6:56 PM 71.1 °F - 55.9 °F 59% 29.77 in 10.0 mi NW 4.6 mph - N/A   Clear
7:56 PM 68.0 °F - 57.0 °F 68% 29.80 in 10.0 mi NW 3.5 mph - N/A   Clear
8:56 PM 64.9 °F - 57.0 °F 75% 29.82 in 10.0 mi NW 5.8 mph - N/A   Clear
9:56 PM 64.9 °F - 57.0 °F 75% 29.85 in 10.0 mi NNW 5.8 mph - N/A   Clear
10:56 PM 63.0 °F - 55.9 °F 78% 29.87 in 10.0 mi NW 5.8 mph - N/A   Clear
11:56 PM 63.0 °F - 55.0 °F 75% 29.87 in 10.0 mi North 4.6 mph - N/A   Clear